Voltar ao catálogo

COSMOS 2397

AtivoMilitarGEO
NORAD 27775·PAYLOAD·🇷🇺 Russia

Lançado Apr 24, 2003 de Baikonur Cosmodrome

Loading…

TLE

AtualizadoSource: Space-Track

Época: Sep 13, 2026, 23:59 UTC

1 27775U 03015A   26256.99982941  .00000099  00000-0  00000-0 0  9997
2 27775  12.7997  19.3879 0041548  12.4984 338.3144  1.00465290 85806

Acompanhe COSMOS 2397 em tempo real com AllMySat

Download on the App Store